Simultaneous Nadir Overpasses (SNOs) Predictions

Prediction of SNOs between GOES-16 and NOAA-20 Satellite Orbit:

Table of predicted SNOs for the next 14.0 days since TLE Epoch: 8/16/2019
Index Date Time (GOES-16) GOES-16 Lat,Lon NOAA-20 Lat,Lon Distance(km) Time Diff (sec)
1 08/17/2019 06:16:37 -0.04, -75.17 -0.43, -73.38 203.26 80
2 08/18/2019 18:38:33 0.04, -75.21 -0.71, -78.69 396.75 80
3 08/19/2019 18:22:28 0.04, -75.23 0.30, -74.16 122.18 80
4 08/21/2019 06:44:14 -0.05, -75.25 0.90, -79.42 475.59 80
5 08/22/2019 06:22:49 -0.05, -75.27 -0.11, -74.88 43.47 80
6 08/24/2019 18:26:00 0.05, -75.34 -0.02, -75.66 37.03 80
7 08/25/2019 18:09:54 0.06, -75.36 0.98, -71.13 482.14 80
8 08/27/2019 06:31:41 -0.06, -75.39 0.15, -76.40 115.27 80
9 08/28/2019 06:10:16 -0.06, -75.41 -0.85, -71.87 403.96 80
10 08/29/2019 18:32:11 0.07, -75.46 -0.34, -77.17 195.07 80




NCC Satellite Simultaneous Nadir Overpasses (SNOs) Prediction Service
